Location: Unspecified
(0.0000°N, 0.0000°E)
Time: 08:52:02
(UTC+00:00)

Explorer 11/Cluster Stage 4 - Pass Details

Date: 19 July 2020
Orbit: 467 x 1259 km, 28.8° (Epoch: 03 August)

Event Time Altitude Azimuth Distance (km) Brightness Sun altitude
Rises 04:29:09 0° 244° (WSW) 2,830 - -22.6°
Reaches altitude 10° 04:31:39 10° 247° (WSW) 1,825 - -22.1°
Exits shadow 04:35:34 63° 313° (NW) 557 5.6 -21.2°
Maximum altitude 04:35:43 64° 329° (NNW) 551 5.7 -21.1°
Drops below altitude 10° 04:39:19 10° 51° (NE) 1,620 9.3 -20.3°
Sets 04:41:25 0° 54° (NE) 2,477 10.6 -19.8°
